Location: G�yn�k
(36.6721°N, 30.5542°E)
Time: 00:52:15
(UTC+00:00)

BREEZE-M DEB (TANK) - Pass Details

Date: 02 October 2020
Orbit: 333 x 12040 km, 49.7° (Epoch: 26 October)

Event Time Altitude Azimuth Distance (km) Brightness Sun altitude
Rises 22:00:55 0° 128° (SE) 15,256 9.2 -57.2°
Reaches altitude 10° 22:32:59 10° 110° (ESE) 16,070 9.4 -55.7°
Maximum altitude 23:07:48 15° 89° (E) 15,173 9.5 -52.4°
Drops below altitude 10° 23:34:46 10° 70° (ENE) 13,468 9.5 -49.0°
Sets 23:51:51 0° 55° (NE) 12,237 9.6 -46.6°
